{"data":{"norad_id":60585,"epoch":"2026-05-24T21:11:52.392192Z","epoch_age_seconds":85412,"freshness":"FRESH","line1":"1 60585U 24150C   26144.88324528  .00021702  00000+0  74492-3 0  9993","line2":"2 60585  53.1622 313.3505 0001742  85.1801 274.9398 15.30102777 99623","mean_motion":15.30102777,"eccentricity":0.0001742,"inclination_deg":53.1622,"raan_deg":313.3505,"arg_perigee_deg":85.1801,"mean_anomaly_deg":274.9398,"bstar":0.00074492,"rev_number":9962,"period_min":94.111325176688,"perigee_km":474.31147064182,"apogee_km":476.69927964532,"semimajor_km":6853.6423751436,"source":"CELESTRAK","updated_at":"2026-05-25T13:38:19.278362Z"}}